EW9936 Weather Reports


time (UTC)temp
F
wind
direction
speed
knots
gust
knots
rain 1hr
in
rain 24hr
in
rain mn
in
humidity
%
barometer
mb
20260510174557 73 294 3.5 0.0 0.00 0.00 0.01 69 976.7
20260510173048 74 292 0.9 0.0 0.00 0.00 0.01 69 976.6
20260510171556 72 321 1.7 0.0 0.00 0.00 0.01 71 976.7
20260510170046 72 282 3.5 0.0 0.00 0.00 0.01 70 976.7
20260510164539 72 315 2.6 0.0 0.00 0.00 0.01 70 976.7
20260510163048 72 315 3.5 0.0 0.00 0.00 0.01 70 976.7
20260510161535 71 198 3.5 0.0 0.00 0.00 0.01 74 976.5
20260510160039 71 256 2.6 0.0 0.00 0.00 0.01 70 976.6
20260510154534 71 318 2.6 0.0 0.00 0.00 0.01 73 976.5
20260510153038 70 259 2.6 0.0 0.00 0.00 0.01 74 976.3
20260510151529 70 219 4.3 0.0 0.00 0.00 0.01 76 976.6
20260510150027 70 259 0.9 0.0 0.00 0.00 0.01 76 976.4
20260510144525 69 276 1.7 0.0 0.00 0.00 0.01 75 976.1
20260510143022 68 221 2.6 0.0 0.00 0.00 0.01 79 976.4
20260510141522 67 218 3.5 0.0 0.00 0.00 0.01 79 976.3
20260510140022 66 233 1.7 0.0 0.00 0.00 0.01 85 976.4
20260510134516 65 308 0.9 0.0 0.00 0.00 0.01 86 976.3
20260510133010 62 309 0.0 0.0 0.00 0.00 0.01 97 976.3
20260510131507 61 315 0.0 0.0 0.00 0.00 0.01 100 976.3
20260510130005 58 318 0.0 0.0 0.00 0.00 0.01 100 976.4
20260510124503 57 318 0.0 0.0 0.00 0.00 0.00 100 976.4
20260510123057 56 318 0.0 0.0 0.00 0.00 0.00 100 976.4
20260510121553 54 318 0.0 0.0 0.00 0.00 0.00 100 976.3
20260510120049 52 318 0.0 0.0 0.00 0.00 0.00 100 976.1
20260510114551 50 318 0.0 0.0 0.00 0.00 0.00 100 975.9
20260510113042 49 318 0.0 0.0 0.00 0.00 0.00 100 975.7
20260510111539 48 318 0.0 0.0 0.00 0.00 0.00 100 975.7
20260510110048 48 318 0.0 0.0 0.00 0.00 0.00 100 975.7
20260510104538 48 318 0.0 0.0 0.00 0.00 0.00 100 975.6
20260510103042 48 318 0.0 0.0 0.00 0.00 0.00 100 975.4
20260510101535 48 318 0.0 0.0 0.00 0.00 0.00 100 975.2
20260510100046 47 318 0.0 0.0 0.00 0.00 0.00 100 975.2
20260510094540 48 318 0.0 0.0 0.00 0.00 0.00 100 974.9
20260510093037 48 318 0.0 0.0 0.00 0.00 0.00 100 974.7
20260510091533 48 318 0.0 0.0 0.00 0.00 0.00 100 974.7
20260510090034 48 318 0.0 0.0 0.00 0.00 0.00 100 974.5
20260510084535 48 318 0.0 0.0 0.00 0.00 0.00 100 974.7
20260510083032 49 318 0.9 0.0 0.00 0.00 0.00 100 974.7
20260510081539 49 318 0.0 0.0 0.00 0.00 0.00 100 974.8
20260510080048 48 318 1.7 0.0 0.00 0.00 0.00 100 975.0
20260510074528 45 261 0.9 0.0 0.00 0.00 0.00 100 975.1
20260510073038 45 229 0.0 0.0 0.00 0.00 0.00 100 974.2
20260510071526 45 229 0.0 0.0 0.00 0.00 0.00 100 974.1
20260510070032 45 229 0.0 0.0 0.00 0.00 0.00 100 974.2
20260510064525 45 220 0.0 0.0 0.00 0.00 0.00 100 974.2
20260510063031 45 220 0.0 0.0 0.00 0.00 0.00 100 974.1
20260510061524 45 220 0.0 0.0 0.00 0.00 0.00 100 973.9
20260510060035 45 220 0.0 0.0 0.00 0.00 0.00 100 973.9
20260510054522 45 220 0.0 0.0 0.00 0.00 0.00 100 974.0
20260510053018 45 220 0.0 0.0 0.00 0.00 0.00 100 974.1
20260510051517 46 220 0.0 0.0 0.00 0.00 0.00 100 974.2
20260510050015 46 219 0.0 0.0 0.00 0.00 0.00 100 974.2
20260510044513 46 220 0.0 0.0 0.00 0.00 0.00 100 974.3
20260510043012 47 220 0.0 0.0 0.00 0.00 0.00 100 974.4
20260510041511 47 219 0.0 0.0 0.00 0.00 0.00 100 974.4
20260510040011 47 220 0.0 0.0 0.00 0.00 0.00 100 974.5
20260510034506 48 219 0.0 0.0 0.00 0.00 0.15 100 974.4
20260510033005 48 220 0.0 0.0 0.00 0.00 0.15 100 974.4
20260510031508 48 219 0.0 0.0 0.00 0.00 0.15 100 974.3
20260510030006 49 220 0.0 0.0 0.00 0.00 0.15 100 974.1
20260510024505 49 220 0.0 0.0 0.00 0.00 0.15 100 973.9
20260510023004 50 220 0.0 0.0 0.00 0.00 0.15 100 974.1
20260510021509 50 220 0.0 0.0 0.00 0.00 0.15 99 974.0
20260510020003 51 219 0.0 0.0 0.00 0.00 0.15 99 973.9
20260510014502 51 219 0.0 0.0 0.00 0.00 0.15 99 973.8
20260510013001 52 219 0.0 0.0 0.00 0.00 0.15 99 973.6
20260510011501 53 220 0.0 0.0 0.00 0.00 0.15 99 973.5
20260510010000 54 220 0.0 0.0 0.00 0.00 0.15 99 973.6
20260510004602 54 220 0.0 0.0 0.00 0.00 0.15 99 973.5
20260510003105 55 220 0.0 0.0 0.00 0.00 0.15 99 973.2
20260510001608 56 219 0.0 0.0 0.00 0.00 0.15 99 973.0
20260510000058 56 220 0.0 0.0 0.00 0.00 0.15 98 973.0
20260509234559 57 219 0.0 0.0 0.00 0.00 0.15 98 972.9
20260509233102 58 219 0.0 0.0 0.00 0.00 0.15 96 973.0
20260509231604 58 219 0.0 0.0 0.00 0.00 0.15 95 972.9
20260509230059 59 220 0.0 0.0 0.00 0.00 0.15 94 973.0
20260509224556 59 221 0.0 0.0 0.00 0.00 0.15 92 972.9
20260509223055 59 221 0.0 0.0 0.00 0.00 0.15 93 972.9
20260509221552 58 221 0.0 0.0 0.00 0.00 0.15 96 973.0
20260509220052 58 221 0.0 0.0 0.00 0.00 0.15 96 973.1
20260509214550 58 221 0.0 0.0 0.00 0.00 0.15 97 973.0
20260509213103 57 221 0.0 0.0 0.00 0.00 0.15 98 973.0
20260509211549 57 221 0.0 0.0 0.00 0.00 0.15 99 973.2
20260509210050 57 221 0.0 0.0 0.00 0.00 0.15 99 973.2
20260509204546 57 221 0.0 0.0 0.00 0.00 0.15 100 973.2
20260509203045 57 229 0.0 0.0 0.00 0.00 0.15 100 973.3
20260509201545 56 231 0.0 0.0 0.00 0.00 0.15 100 973.3
20260509200051 56 227 0.0 0.0 0.00 0.00 0.15 100 973.2
20260509194553 55 227 0.9 0.0 0.00 0.00 0.15 100 973.2
20260509193043 55 225 0.0 0.0 0.00 0.00 0.15 100 973.6
20260509191539 54 225 0.0 0.0 0.00 0.00 0.15 100 974.0
20260509190040 55 225 0.0 0.0 0.00 0.00 0.13 100 974.3
20260509184538 55 225 0.0 0.0 0.00 0.00 0.12 100 974.4
20260509183037 55 225 0.0 0.0 0.00 0.00 0.12 98 974.7
20260509181537 55 225 0.0 0.0 0.00 0.00 0.11 97 974.9
20260509180050 55 225 0.0 0.0 0.00 0.00 0.11 97 975.0